Location: Lansingburgh
(42.7845°N, 73.6696°W)
Time: 08:14:43
(UTC+00:00)

BlueWalker 3 - Pass Details

Date: 22 December 2025
Orbit: 451 x 463 km, 53.2° (Epoch: 18 January)

Event Time Altitude Azimuth Distance (km) Brightness Sun altitude
Exits shadow 11:16:51 - 237° (WSW) 1,996 4.6 -11.6°
Reaches altitude 10° 11:17:52 10° 238° (WSW) 1,584 4.1 -11.4°
Maximum altitude 11:21:25 76° 324° (NW) 473 1.6 -10.8°
Drops below altitude 10° 11:25:01 10° 51° (NE) 1,600 4.9 -10.2°
Sets 11:27:11 0° 53° (NE) 2,479 5.9 -9.9°
